Location: *
(58.7167°N, 26.1833°E)
Time: 05:04:01
(UTC+00:00)

USA 267 - Pass Details

Date: 25 August 2019
Orbit: 1102 x 1106 km, 123.0° (Epoch: 17 September)

Event Time Altitude Azimuth Distance (km) Brightness Sun altitude
Rises 19:22:59 0° 75° (ENE) 3,926 5.9 -12.2°
Reaches altitude 10° 19:25:30 10° 78° (ENE) 2,967 5.2 -12.4°
Maximum altitude 19:32:01 66° 161° (SSE) 1,198 3.2 -13.0°
Drops below altitude 10° 19:38:32 10° 243° (WSW) 2,962 5.7 -13.6°
Sets 19:41:02 0° 246° (WSW) 3,918 6.4 -13.8°
